Weather History for Daggett-Barstow, CA

Change the Weather History Date:

Monday, February 10, 2014

  Actual Average Record
Temperature  
Mean Temperature 63 °F -  
Max Temperature 73 °F 63 °F 81 °F (1951)
Min Temperature 52 °F 40 °F 24 °F (1949)
Degree Days  
Heating Degree Days 2    
Growing Degree Days 13 (Base 50)    
Moisture  
Dew Point 37 °F    
Average Humidity 39    
Maximum Humidity 59    
Minimum Humidity 23    
Precipitation  
Precipitation 0.00 in - - ()
Sea Level Pressure  
Sea Level Pressure 30.01 in    
Wind  
Wind Speed 20 mph (West)    
Max Wind Speed 28 mph    
Max Gust Speed 40 mph    
Visibility 10 miles    
Events      
Averages and records for this station are not official NWS values.
T = Trace of Precipitation, MM = Missing Value Source: NWS Daily Summary

Daily Weather History Graph

Daily Weather History Graph

Search for Another Location

Airport:

Trip Planner

Search our weather history database for the weather conditions in past years. The results will help you decide how hot, cold, wet, or windy it might be!

Date:

Astronomy

Feb. 10, 2014 Rise Set
Actual Time 6:37 AM PST 5:25 PM PST
Civil Twilight 6:11 AM PST 5:51 PM PST
Nautical Twilight 5:42 AM PST 6:21 PM PST
Astronomical Twilight 5:12 AM PST 6:50 PM PST
Moon 2:01 PM PST (2/10) 3:30 AM PST (2/10)
Length of Visible Light 11h 39m
Length of Day
10h 47m
Waxing Gibbous, 85% of the Moon is Illuminated
Feb 10
Waxing Gibbous
Feb 14
Full
Feb 22
Last Quarter
Mar 1
New
Mar 8
First Quarter

Hourly Weather History & Observations

Time (PST) Temp. Dew Point Humidity Pressure Visibility Wind Dir Wind Speed Gust Speed Precip Events Conditions
12:50 AM 64.0 °F 35.1 °F 34% 29.98 in 10.0 mi WSW 23.0 mph 32.2 mph N/A   Clear
1:50 AM 63.0 °F 37.0 °F 38% 29.95 in 10.0 mi SW 23.0 mph 33.4 mph N/A   Clear
2:50 AM 63.0 °F 37.0 °F 38% 29.94 in 10.0 mi WSW 25.3 mph - N/A   Clear
3:06 AM 60.1 °F 37.0 °F 42% 30.00 in 10.0 mi West 27.6 mph 36.8 mph N/A   Clear
3:50 AM 57.9 °F 37.9 °F 47% 29.95 in 10.0 mi WNW 19.6 mph - N/A   Clear
4:50 AM 61.0 °F 39.9 °F 46% 29.96 in 10.0 mi West 24.2 mph 32.2 mph N/A   Clear
5:50 AM 60.1 °F 41.0 °F 49% 29.97 in 10.0 mi WSW 26.5 mph 40.3 mph N/A   Clear
6:50 AM 59.0 °F 43.0 °F 55% 29.99 in 10.0 mi WSW 24.2 mph - N/A   Clear
7:50 AM 61.0 °F 43.0 °F 52% 30.03 in 10.0 mi WSW 24.2 mph 34.5 mph N/A   Clear
8:50 AM 64.0 °F 43.0 °F 46% 30.04 in 10.0 mi WSW 27.6 mph 35.7 mph N/A   Clear
9:50 AM 66.9 °F 42.1 °F 40% 30.05 in 10.0 mi West 27.6 mph - N/A   Clear
10:50 AM 68.0 °F 37.9 °F 33% 30.05 in 10.0 mi West 23.0 mph - N/A   Clear
11:50 AM 70.0 °F 37.0 °F 30% 30.04 in 10.0 mi West 24.2 mph 27.6 mph N/A   Clear
12:50 PM 72.0 °F 35.1 °F 26% 30.00 in 10.0 mi West 16.1 mph 21.9 mph N/A   Clear
1:50 PM 73.0 °F 34.0 °F 24% 29.97 in 10.0 mi West 11.5 mph - N/A   Clear
2:50 PM 73.0 °F 34.0 °F 24% 29.96 in 10.0 mi West 5.8 mph - N/A   Partly Cloudy
3:50 PM 73.0 °F 33.1 °F 23% 29.96 in 10.0 mi Variable 3.5 mph - N/A   Partly Cloudy
4:50 PM 73.0 °F 33.1 °F 23% 29.96 in 10.0 mi NNW 5.8 mph - N/A   Clear
5:50 PM 64.0 °F 33.1 °F 31% 29.99 in 10.0 mi ENE 3.5 mph - N/A   Clear
6:50 PM 66.0 °F 34.0 °F 30% 30.01 in 10.0 mi WSW 6.9 mph - N/A   Clear
7:50 PM 61.0 °F 35.1 °F 38% 30.04 in 10.0 mi West 5.8 mph - N/A   Clear
8:50 PM 57.9 °F 37.0 °F 46% 30.06 in 10.0 mi Variable 5.8 mph - N/A   Clear
9:50 PM 55.9 °F 37.9 °F 51% 30.05 in 10.0 mi WNW 12.7 mph - N/A   Clear
10:50 PM 53.1 °F 37.9 °F 57% 30.09 in 10.0 mi WSW 9.2 mph - N/A   Clear
11:50 PM 52.0 °F 37.9 °F 59% 30.09 in 10.0 mi WNW 10.4 mph - N/A   Clear